This is the latest recevied weather packets stored in our database for station/object DG1ABU-11. If no packets are shown the sender has not sent any weather packets the latest 10 day(s).
| Time | Temp. | Humidity | Pressure | Rain* | Wind** | Luminosity | Snow |
|---|---|---|---|---|---|---|---|
| 1777644133 | 28.89° C | 19% | 1027.5 hPa | - | - | - | - |
| 1777643233 | 28.89° C | 18% | 1027.8 hPa | - | - | - | - |
| 1777642333 | 29.44° C | 19% | 1027.9 hPa | - | - | - | - |
| 1777641433 | 30° C | 18% | 1028 hPa | - | - | - | - |
| 1777640532 | 30° C | 18% | 1028.2 hPa | - | - | - | - |
| 1777639632 | 29.44° C | 19% | 1028.4 hPa | - | - | - | - |
| 1777638732 | 29.44° C | 20% | 1028.7 hPa | - | - | - | - |
| 1777637832 | 29.44° C | 18% | 1028.7 hPa | - | - | - | - |
| 1777636932 | 29.44° C | 20% | 1028.9 hPa | - | - | - | - |
| 1777636032 | 28.89° C | 23% | 1029 hPa | - | - | - | - |
| 1777635132 | 28.33° C | 23% | 1028.9 hPa | - | - | - | - |
| 1777634232 | 28.33° C | 22% | 1029.1 hPa | - | - | - | - |
| 1777633332 | 27.22° C | 25% | 1029.4 hPa | - | - | - | - |
| 1777632432 | 27.22° C | 25% | 1029.5 hPa | - | - | - | - |
| 1777631532 | 26.11° C | 25% | 1029.6 hPa | - | - | - | - |
| 1777630632 | 26.11° C | 25% | 1029.7 hPa | - | - | - | - |
| 1777629732 | 25.56° C | 27% | 1029.8 hPa | - | - | - | - |
| 1777628832 | 23.89° C | 28% | 1030 hPa | - | - | - | - |
| 1777627932 | 23.33° C | 29% | 1030.1 hPa | - | - | - | - |
| 1777627032 | 22.22° C | 31% | 1030.2 hPa | - | - | - | - |
| 1777626132 | 21.67° C | 32% | 1030.4 hPa | - | - | - | - |
| 1777625232 | 20° C | 33% | 1030.4 hPa | - | - | - | - |
| 1777624331 | 18.89° C | 34% | 1030.5 hPa | - | - | - | - |
| 1777623431 | 17.78° C | 36% | 1030.5 hPa | - | - | - | - |
| 1777622531 | 16.11° C | 36% | 1030.6 hPa | - | - | - | - |
* Rain since midnight (hover to see other rain measurements)
** Current wind speed in m/s (hover to see current wind gust speed)